Regional Weather Roundup
Issued by NWS Portland, ME

Home | Current Version | Previous Version | Text Only | Print | Product List | Glossary On
Versions: 1 2 3 4 5 6 7 8 9 10 11 12 13 14 15 16 17 18 19 20 21 22 23 24 25 26 27 28 29 30 31 32 33 34 35 36 37 38 39 40 41 42 43 44 45 46 47 48 49 50
000
ASUS41 KGYX 180905
RWRGYX
WEATHER ROUNDUP FOR MAINE AND NEW HAMPSHIRE
NATIONAL WEATHER SERVICE GRAY ME
500 AM EDT THU JUL 18 2019

MEZ002-005-006-010-012-015-018-020-021-024-026-027-029-181000-
MAINE

CITY           SKY/WX    TMP DP  RH WIND       PRES   REMARKS
PORTLAND       FAIR      69  62  78 NE12      29.95R
SANFORD        FAIR      69  64  84 NE12      29.95R
BAR HARBOR     FAIR      59  56  89 N6        29.99R
WISCASSET      FAIR      64  59  83 VRB6      29.98R
ROCKLAND       FAIR      64  56  75 NE9G16    29.98R
FRYEBURG       FAIR      67  58  72 NE6       29.98R
LEWISTONAUBURN FAIR      65  60  84 NE10      29.98
AUGUSTA        FAIR      63  56  78 NE10      30.00R
WATERVILLE     FAIR      60  55  83 N6        29.98R
BANGOR         FAIR      60  52  74 N8        30.01R
GREENVILLE       N/A     53  48  83 VRB3      30.02R
MILLINOCKET    FAIR      57  48  72 NW3       30.03R
HOULTON        FAIR      48  46  93 CALM      30.00S
PRESQUE ISLE   FAIR      49  47  93 CALM      30.03R
FRENCHVILLE    FAIR      49  45  86 N7        30.02R
CARIBOU        FAIR      53  46  77 NW3       30.01R
$$

NHZ002-005-008-009-011-012-014-181000-
NEW HAMPSHIRE

CITY           SKY/WX    TMP DP  RH WIND       PRES   REMARKS
PORTSMOUTH     PTCLDY    71  65  82 NE9       29.91R
ROCHESTER      FAIR      70  64  81 NE7       29.94R
NASHUA         FAIR      71  71 100 CALM      29.93R
MANCHESTER     FAIR      71  69  93 CALM      29.91R
CONCORD          N/A    N/A N/A N/A MISG      29.93R
LACONIA        FAIR      70  66  87 E13       29.95R
PLYMOUTH       MOCLDY    64  62  96 CALM      29.96R FOG
BERLIN         FOG       58  56  93 N3        30.01R VSB 1/4
WHITEFIELD     LGT RAIN  56  55  97 CALM      29.99R VSB 3/4
JAFFREY        MOCLDY    69  67  93 CALM      29.96R
KEENE          FAIR      68  68 100 CALM      29.94R
LEBANON        CLOUDY    70  65  84 N5        29.95R
MT WASHINGTON  NOT AVBL
$$

VTZ005-007-008-181000-
VERMONT

CITY           SKY/WX    TMP DP  RH WIND       PRES   REMARKS
ST JOHNSBURY     N/A     59  59 100 MISG      29.97R
MONTPELIER     CLOUDY    59  59 100 CALM      30.03R FOG
BURLINGTON     FAIR      64  60  87 CALM      29.97R
$$

MAZ007-012-024-CTZ003-RIZ002-NYZ038-NYZ072-181000-
SOUTHERN NEW ENGLAND AND NY

CITY           SKY/WX    TMP DP  RH WIND       PRES   REMARKS
BOSTON         CLOUDY    76  71  85 N8        29.91R
WORCESTER      CLOUDY    71  68  90 N6        29.95R
NANTUCKET      FOG       69  69 100 SW6       29.92R VSB 1/2
PROVIDENCE     CLOUDY    72  71  97 SW5       29.92R
HARTFORD       CLOUDY    73  71  93 CALM      29.91R
ALBANY         MOCLDY    72  68  87 N6        29.92R FOG
NEW YORK CITY  CLOUDY    76  72  87 SW3       29.89S
$$

ANZ081-ANZ082-ANZ150-NHZ014-MEZ023>029-181000-
COASTAL MARINE OBSERVATIONS

STATION/POSITION TIME  TEMP    WIND        PRES    WAVE
                       AIR SEA DIR/SP/G            HT/PER
                 (UTC) (F)     (DEG/KT/KT) (MB)    (FT/S)
ISLE OF SHOALS   0800   68      30/ 23/ 26 1011.4S
JEFFREYS LEDGE   0838      69                N/A     2/11
CASHES LEDGE BUO 0850   61 58   40/ 16/ 17 1013.2R   2/ 6
GEORGES BANK BUO 0850   66 61  240/ 12/ 14 1014.0R   4/ 6
$$

.............KEY..............
   WCI - WIND CHILL
   TC  - TEMPERATURE IN CELSIUS
   VSB - VISIBILITY IN MILES
   HX  - HEAT INDEX
   FAIR- INDICATES FEW OR NO CLOUDS BELOW 12,000 FT, WITH NO
         SIGNIFICANT WEATHER AND/OR OBSTRUCTIONS TO VISIBILITY.





USA.gov is the U.S. government's official web portal to all federal, state and local government web resources and services.